Powrót do katalogu

MERIDIAN 3

AktywnyMilitariaHEO
NORAD 37212·PAYLOAD·🇷🇺 Russia

Wystrzelony Nov 2, 2010 z Plesetsk Cosmodrome

Loading…

Następne Przeloty (najbliższe 24 godziny)

TLE

ŚwieżeSource: Space-Track

Epoka: Sep 12, 2026, 01:51 UTC

1 37212U 10058A   26255.07762234  .00000165  00000-0  00000-0 0  9992
2 37212  63.4523  81.9938 6885387 260.9242  21.8485  2.00601184116208

Śledź MERIDIAN 3 w czasie rzeczywistym z AllMySat

Download on the App Store